User: anonymous   Login
Location: Unspecified
(0.0000°N, 0.0000°E)
Time: 19:46:40
(UTC+01:00)
Language:

Resurs 01 Rocket - Orbit

View from above orbital plane
View from above orbital plane
View from above satellite
View from above satellite

Ground track
Ground track

The orbit data is extracted from the following two-line orbital elements,

1 23343U 94074B   18020.16694898 -.00000029  00000-0  34214-5 0  9992
2 23343  98.1263  64.0747 0008261  96.5366 308.2338 14.76721967248850
Epoch (UTC): 20 January 2018 04:00:24
Eccentricity: 0.0008261
inclination: 98.1263°
perigee height: 634 km
apogee height: 645 km
right ascension of ascending node: 64.0747°
argument of perigee: 96.5366°
revolutions per day: 14.76721967
mean anomaly at epoch: 308.2338°
orbit number at epoch: 24885

The dashed part of the orbit path shows where the satellite is in the earth's shadow,  

DLR